This is the latest recevied weather packets stored in our database for station/object KB2EAR-13. If no packets are shown the sender has not sent any weather packets the latest 10 day(s).
| Time | Temp. | Humidity | Pressure | Rain* | Wind** | Luminosity | Snow |
|---|---|---|---|---|---|---|---|
| 1777644617 | 12.22° C | 59% | 1014.4 hPa | 0 mm | - | - | - |
| 1777644514 | 12.22° C | 57% | 1014.5 hPa | 0 mm | - | - | - |
| 1777644316 | 12.22° C | 57% | 1014.5 hPa | 0 mm | - | - | - |
| 1777643908 | 11.67° C | 60% | 1014.3 hPa | 0 mm | - | - | - |
| 1777643717 | 11.67° C | 60% | 1014.3 hPa | 0 mm | - | - | - |
| 1777643598 | 11.67° C | 59% | 1014.4 hPa | 0 mm | - | - | - |
| 1777643417 | 11.67° C | 59% | 1014.4 hPa | 0 mm | - | - | - |
| 1777643209 | 11.67° C | 61% | 1014.4 hPa | 0 mm | - | - | - |
| 1777643117 | 11.67° C | 61% | 1014.4 hPa | 0 mm | - | - | - |
| 1777642946 | 11.67° C | 61% | 1014.4 hPa | 0 mm | - | - | - |
| 1777642816 | 11.67° C | 61% | 1014.4 hPa | 0 mm | - | - | - |
| 1777642703 | 11.67° C | 62% | 1014.5 hPa | 0 mm | - | - | - |
| 1777642517 | 11.67° C | 62% | 1014.5 hPa | 0 mm | - | - | - |
| 1777642217 | 11.11° C | 66% | 1014.4 hPa | 0 mm | - | - | - |
| 1777641917 | 11.11° C | 67% | 1014.5 hPa | 0 mm | - | - | - |
| 1777641616 | 11.11° C | 66% | 1014.6 hPa | 0 mm | - | - | - |
| 1777641317 | 11.11° C | 66% | 1014.6 hPa | 0 mm | - | - | - |
| 1777641017 | 10.56° C | 68% | 1014.7 hPa | 0 mm | - | - | - |
| 1777639817 | 10.56° C | 70% | 1014.7 hPa | 0 mm | - | - | - |
| 1777638917 | 10° C | 70% | 1014.8 hPa | 0 mm | - | - | - |
| 1777638617 | 10° C | 71% | 1015 hPa | 0 mm | - | - | - |
| 1777638016 | 10° C | 72% | 1014.8 hPa | 0 mm | - | - | - |
| 1777637751 | 9.44° C | 72% | 1014.7 hPa | 0 mm | - | - | - |
| 1777637717 | 9.44° C | 72% | 1014.7 hPa | 0 mm | - | - | - |
| 1777637117 | 8.89° C | 75% | 1014.6 hPa | 0 mm | - | - | - |
* Rain latest hour (hover to see other rain measurements)
** Current wind speed in m/s (hover to see current wind gust speed)